Location: Bamazo
(6.7448°N, 10.8189°W)
Time: 03:46:15
(UTC+00:00)

BLOCK DM-SL R/B - Pass Details

Date: 18 September 2020
Orbit: 227 x 27860 km, 0.2° (Epoch: 23 October)

Event Time Altitude Azimuth Distance (km) Brightness Sun altitude
Rises 18:30:33 0° 252° (WSW) 2,361 6.2 1.8°
Reaches altitude 10° 18:31:48 10° 244° (WSW) 1,819 5.3 1.5°
Maximum altitude 18:35:23 49° 167° (SSE) 1,347 3.2 0.6°
Drops below altitude 10° 18:53:47 10° 96° (E) 8,633 6.7 -4.0°
Enters shadow 19:00:49 - 95° (E) 11,034 7.2 -5.7°
